Total_Precipitation_Accumulation
0.23 0.24 0.26 0.24 0.25 0.25 0.28 0.38 0.53 0.37 0.10 0.03 0.05 0.06 0.09 0.12 0.17 0.17 0.17 0.20 0.27 0.34 0.36 0.39 0.43 0.51 0.82 1.47 2.41 3.07 2.93 2.26 1.52 1.10 1.06 1.24 1.60 1.96
0.28 0.30 0.31 0.31 0.30 0.30 0.32 0.32 0.40 0.48 0.29 0.05 0.06 0.07 0.09 0.12 0.17 0.18 0.18 0.20 0.22 0.27 0.31 0.33 0.36 0.44 0.57 0.86 1.43 2.33 2.90 2.82 2.19 1.57 1.29 1.31 1.46 1.86
0.30 0.34 0.35 0.34 0.35 0.33 0.34 0.35 0.34 0.39 0.38 0.10 0.04 0.07 0.13 0.16 0.17 0.17 0.19 0.18 0.16 0.19 0.26 0.31 0.34 0.40 0.50 0.65 0.90 1.46 2.30 2.79 2.75 2.23 1.77 1.53 1.42 1.50
0.44 0.43 0.44 0.44 0.46 0.44 0.45 0.40 0.36 0.34 0.38 0.24 0.07 0.06 0.13 0.20 0.26 0.25 0.21 0.18 0.15 0.16 0.20 0.26 0.31 0.35 0.43 0.54 0.68 0.94 1.50 2.22 2.68 2.61 2.18 1.76 1.51 1.46
0.71 0.71 0.68 0.65 0.65 0.63 0.61 0.53 0.42 0.34 0.33 0.30 0.16 0.09 0.13 0.23 0.33 0.34 0.29 0.21 0.16 0.17 0.19 0.22 0.27 0.30 0.35 0.42 0.53 0.67 0.92 1.33 1.93 2.45 2.59 2.25 1.82 1.58
0.82 0.85 0.90 0.93 0.92 0.88 0.85 0.69 0.54 0.44 0.36 0.34 0.26 0.17 0.15 0.22 0.39 0.44 0.40 0.31 0.22 0.17 0.19 0.20 0.24 0.29 0.29 0.30 0.33 0.46 0.69 1.05 1.45 1.98 2.48 2.58 2.23 1.88
0.57 0.61 0.72 0.88 1.00 1.06 1.09 0.94 0.78 0.68 0.55 0.45 0.36 0.28 0.23 0.28 0.43 0.50 0.53 0.48 0.40 0.31 0.24 0.19 0.20 0.22 0.23 0.27 0.33 0.41 0.55 0.75 1.00 1.40 1.92 2.39 2.42 2.18
0.36 0.37 0.41 0.57 0.68 0.77 0.88 0.91 0.95 0.97 0.87 0.68 0.52 0.40 0.32 0.33 0.41 0.55 0.59 0.61 0.59 0.48 0.39 0.33 0.28 0.26 0.24 0.23 0.27 0.33 0.43 0.58 0.76 0.99 1.32 1.77 2.15 2.23
0.19 0.20 0.21 0.30 0.42 0.46 0.53 0.61 0.71 0.84 0.94 0.90 0.80 0.63 0.47 0.40 0.45 0.52 0.59 0.65 0.64 0.62 0.60 0.58 0.51 0.40 0.34 0.33 0.35 0.33 0.36 0.45 0.58 0.73 0.93 1.22 1.61 1.97
0.15 0.13 0.11 0.16 0.31 0.40 0.49 0.49 0.50 0.64 0.84 0.94 1.01 0.91 0.70 0.57 0.62 0.68 0.72 0.69 0.68 0.79 0.82 0.79 0.71 0.58 0.53 0.49 0.46 0.38 0.34 0.36 0.45 0.57 0.70 0.87 1.14 1.51
0.12 0.13 0.10 0.10 0.25 0.34 0.31 0.29 0.30 0.43 0.56 0.72 0.80 0.78 0.72 0.67 0.70 0.76 0.74 0.76 0.86 0.99 1.03 1.01 0.94 0.75 0.70 0.71 0.64 0.51 0.39 0.35 0.38 0.46 0.55 0.66 0.82 1.14
0.08 0.09 0.15 0.17 0.24 0.23 0.17 0.18 0.25 0.32 0.32 0.35 0.39 0.44 0.46 0.47 0.56 0.72 0.83 0.85 0.93 1.15 1.19 1.08 1.13 1.00 0.97 0.93 0.76 0.54 0.43 0.42 0.43 0.45 0.48 0.54 0.65 0.81
0.06 0.08 0.12 0.17 0.16 0.13 0.11 0.14 0.27 0.24 0.16 0.20 0.25 0.32 0.40 0.45 0.51 0.62 0.77 0.89 0.95 1.08 1.16 1.08 1.20 1.09 0.98 1.01 0.91 0.70 0.47 0.40 0.41 0.50 0.55 0.58 0.60 0.59
0.08 0.06 0.08 0.09 0.07 0.05 0.05 0.09 0.10 0.07 0.07 0.11 0.16 0.22 0.33 0.45 0.55 0.63 0.71 0.81 0.91 1.01 1.02 1.00 1.13 1.10 0.89 0.80 0.85 0.86 0.66 0.50 0.41 0.43 0.48 0.67 0.73 0.69
0.19 0.13 0.04 0.03 0.02 0.01 0.02 0.04 0.03 0.03 0.06 0.09 0.14 0.20 0.29 0.40 0.45 0.52 0.58 0.65 0.72 0.85 0.95 0.95 1.05 1.14 0.98 0.77 0.71 0.78 0.80 0.75 0.55 0.46 0.46 0.50 0.56 0.60
0.15 0.09 0.02 0.00 0.00 0.00 0.01 0.01 0.01 0.03 0.07 0.09 0.13 0.16 0.19 0.26 0.35 0.46 0.55 0.59 0.64 0.76 0.94 1.03 1.13 1.24 1.15 0.90 0.75 0.72 0.70 0.79 0.71 0.51 0.46 0.49 0.50 0.45
0.09 0.03 0.01 0.00 0.00 0.00 0.00 0.00 0.01 0.01 0.03 0.06 0.09 0.12 0.16 0.21 0.30 0.40 0.53 0.60 0.67 0.75 0.94 1.15 1.23 1.32 1.34 1.22 1.01 0.84 0.70 0.63 0.65 0.54 0.47 0.54 0.63 0.56
0.06 0.02 0.01 0.00 0.01 0.01 0.01 0.01 0.01 0.01 0.03 0.05 0.08 0.11 0.16 0.23 0.29 0.35 0.47 0.60 0.68 0.73 0.85 1.08 1.23 1.33 1.49 1.57 1.40 1.03 0.80 0.68 0.68 0.62 0.49 0.49 0.68 0.74
0.03 0.01 0.01 0.01 0.02 0.02 0.02 0.02 0.02 0.01 0.02 0.05 0.07 0.10 0.14 0.19 0.25 0.33 0.42 0.53 0.63 0.71 0.80 0.94 1.14 1.29 1.40 1.59 1.75 1.40 1.00 0.80 0.77 0.79 0.68 0.50 0.52 0.66
0.02 0.02 0.03 0.02 0.03 0.03 0.03 0.03 0.02 0.01 0.02 0.03 0.05 0.08 0.12 0.17 0.22 0.29 0.38 0.50 0.59 0.68 0.76 0.87 1.09 1.26 1.28 1.25 1.38 1.56 1.49 1.08 0.83 0.85 0.83 0.71 0.64 0.79
0.02 0.02 0.03 0.03 0.03 0.04 0.03 0.03 0.03 0.02 0.02 0.03 0.04 0.06 0.09 0.14 0.19 0.24 0.32 0.42 0.51 0.59 0.68 0.79 1.00 1.19 1.26 1.14 1.11 1.32 1.57 1.57 1.12 0.81 0.73 0.72 0.76 0.85
0.04 0.04 0.04 0.03 0.04 0.04 0.04 0.04 0.03 0.02 0.02 0.02 0.03 0.04 0.06 0.11 0.15 0.20 0.26 0.34 0.43 0.52 0.62 0.72 0.86 1.12 1.31 1.30 1.24 1.26 1.46 1.67 1.68 1.32 0.93 0.65 0.52 0.54
0.07 0.06 0.05 0.04 0.04 0.04 0.05 0.04 0.03 0.02 0.02 0.02 0.03 0.03 0.04 0.07 0.11 0.15 0.21 0.28 0.36 0.44 0.55 0.67 0.82 1.03 1.31 1.42 1.36 1.28 1.31 1.44 1.54 1.47 1.41 1.12 0.67 0.38